Torna al catalogo

COSMOS 1823 DEB

LostLEO
NORAD 39826·DEBRIS·🇷🇺 Russia

Lanciato Feb 20, 1987 da Plesetsk Cosmodrome

Loading…

Prossimi Passaggi (prossime 24 ore)

TLE

ObsoletoSource: Space-Track

Epoca: Jun 17, 2015, 15:19 UTC

1 39826U 87020FA  15168.63859064  .00000501  00000-0  46870-2 0  9990
2 39826  73.5031 145.0761 0165118 188.6067 291.1139 12.21791139485910

Traccia COSMOS 1823 DEB in tempo reale con AllMySat

Download on the App Store